Temp
22 23 25 27 28 31 31 30 33 31 31 31 30 29 29 29 29 28 26 23 22 22 22 21 21 22 21 21 21 21 22 21 22 21 22 22 22 22 21 21 21 21 21 21 21 21 21 21 21
25 26 28 32 33 33 33 33 32 32 32 32 31 31 31 28 29 28 26 25 24 24 23 22 21 22 21 21 21 21 21 21 21 21 22 22 22 22 22 21 22 22 21 21 21 21 21 21 21
27 28 33 35 35 34 33 33 32 32 32 32 31 31 30 27 29 28 26 25 25 24 23 22 22 22 22 21 21 21 21 21 21 22 22 22 22 22 22 22 22 22 22 21 22 21 21 21 20
29 32 34 36 34 33 34 33 33 32 32 32 31 29 29 28 28 27 25 25 25 24 24 21 21 21 21 21 21 21 22 21 21 22 22 22 22 22 22 22 22 22 22 22 22 21 21 21 22
30 34 36 35 33 34 34 34 34 33 32 31 32 29 28 27 27 26 25 25 26 26 24 22 21 21 21 21 21 21 21 21 21 22 22 22 22 22 22 23 22 22 22 22 22 21 22 22 22
34 35 37 35 33 33 34 34 34 33 32 31 31 30 27 27 27 26 26 26 27 25 24 23 22 22 22 21 21 21 21 21 22 22 22 22 22 23 23 23 22 22 22 21 21 22 22 22 22
34 36 36 36 34 34 33 34 33 33 32 32 32 30 28 28 27 27 27 27 27 26 24 24 23 22 21 21 21 21 21 21 21 22 22 22 22 23 23 22 22 22 21 21 21 22 22 22 22
35 37 36 37 35 34 34 34 34 33 32 33 33 29 28 28 27 27 27 27 27 26 24 24 24 23 23 22 21 21 21 21 22 22 22 22 23 23 23 23 22 23 22 22 22 23 23 23 23
36 37 36 36 36 34 34 33 33 34 31 32 32 32 30 27 27 27 27 27 26 25 25 25 24 24 24 24 22 21 21 22 22 22 23 23 25 24 24 24 23 23 23 23 23 23 23 23 23
36 37 37 38 38 36 35 35 33 33 32 31 31 32 29 27 27 28 28 27 27 26 25 26 26 25 24 25 23 23 24 24 24 24 24 24 25 24 23 23 23 23 23 23 24 24 24 24 26
37 37 38 37 38 37 35 35 34 33 32 33 31 30 29 28 28 28 28 28 27 26 26 26 26 25 25 25 24 25 25 25 24 23 23 24 24 24 25 25 25 25 25 26 25 25 25 25 25
36 37 38 38 37 37 36 36 34 33 34 34 33 31 30 30 30 29 29 28 27 26 26 26 25 24 24 25 24 25 25 25 25 25 23 23 24 24 24 25 25 23 25 24 25 26 24 25 25
37 37 38 38 37 37 37 35 35 34 33 34 32 31 30 31 30 30 29 28 27 26 26 25 25 24 24 24 25 25 25 25 25 25 24 24 25 25 24 24 24 24 24 25 24 25 25 25 25
38 38 37 37 37 37 35 35 34 34 33 33 32 31 31 31 30 30 29 29 28 27 26 26 25 24 23 24 24 24 24 25 25 25 25 23 24 25 23 24 25 24 24 25 23 23 23 23 24
38 36 36 36 36 36 36 34 34 34 33 32 32 31 32 31 30 30 29 28 27 27 27 26 25 24 24 24 24 24 25 25 25 25 24 24 23 23 23 24 24 25 25 23 23 23 24 24 25
37 38 37 36 36 35 36 35 35 34 33 32 32 31 31 31 31 30 29 28 28 27 27 26 26 25 24 24 24 24 25 25 25 24 24 24 23 23 23 23 24 25 24 24 23 23 25 25 25
37 37 37 35 36 34 35 36 36 35 34 33 32 32 32 31 31 30 29 28 28 27 27 26 26 26 25 24 24 24 24 23 25 25 24 24 24 24 23 23 24 23 24 23 24 25 24 24 25
37 37 38 37 35 35 35 36 35 35 35 34 33 33 32 32 32 30 30 29 28 28 26 26 26 25 25 25 24 23 23 23 24 25 24 24 24 24 24 24 24 23 24 24 24 23 23 23 24
39 38 38 38 37 36 36 36 36 34 35 35 35 33 33 33 33 31 30 29 29 28 27 26 25 25 24 25 25 26 25 24 25 25 24 24 23 23 24 25 24 23 23 24 23 23 24 24 24
38 38 38 38 36 36 37 36 36 36 34 35 35 34 33 34 33 32 31 30 29 28 27 26 25 25 24 25 25 26 26 27 27 26 25 24 24 24 23 24 24 24 25 22 22 22 23 24 23
37 37 38 38 36 36 37 36 36 37 36 35 35 35 35 34 34 33 31 30 30 29 27 27 25 25 25 25 25 25 25 25 25 26 25 25 24 24 23 23 24 23 23 25 23 22 22 24 23
37 38 38 38 36 35 36 36 38 38 36 35 35 35 35 35 34 34 33 31 30 29 28 27 26 25 25 25 26 25 26 27 28 27 26 25 24 24 23 23 23 22 24 23 23 22 22 21 24
37 39 38 38 37 37 36 35 38 38 37 37 36 36 36 36 35 35 34 32 31 30 29 28 26 25 25 25 25 25 25 27 27 26 25 24 24 23 24 23 22 22 23 22 22 21 21 22 22
38 37 37 38 37 35 37 36 37 38 37 38 38 37 36 36 36 35 34 33 32 31 30 29 27 25 25 25 24 25 26 26 27 26 25 26 25 24 23 23 22 22 23 21 21 21 20 20 21
36 36 34 34 35 35 38 36 37 39 40 39 40 39 38 37 37 36 35 34 32 31 30 30 28 26 25 25 25 24 25 25 25 25 25 26 26 25 23 22 21 22 21 21 21 20 21 20 21
36 37 35 33 34 35 37 35 37 39 40 40 41 40 40 38 37 36 35 34 33 32 31 29 28 26 26 26 25 25 24 25 25 25 26 26 26 25 24 21 22 22 21 21 20 21 21 21 20
36 36 38 37 37 36 37 37 38 39 39 39 40 40 39 39 38 37 36 34 33 32 31 29 28 26 26 26 25 25 24 24 26 25 24 25 25 25 23 22 21 21 21 21 20 21 21 21 20
37 37 36 37 34 34 36 37 37 38 38 39 40 40 41 40 39 38 37 36 34 33 31 29 28 27 27 27 26 26 25 24 25 24 23 24 23 23 22 21 21 21 20 20 20 21 21 20 21
35 35 37 37 37 35 35 36 39 38 39 40 41 41 42 41 40 39 37 36 34 33 32 30 29 28 27 27 26 26 26 25 24 24 23 23 21 21 21 21 21 21 20 20 20 20 21 20 20
37 35 36 35 34 36 36 37 41 40 40 40 41 41 42 41 41 40 38 36 35 33 33 32 30 29 28 28 26 26 26 25 23 23 22 22 21 22 22 21 22 21 20 20 20 20 21 20 20
Height
776 779 780 776 787 777 790 790 769 779 780 774 778 787 789 787 790 813 810 817 820 822 824 826 827 829 830 831 833 834 835 837 839 842 843 845 846 847 848 849 848 848 849 850 850 851 851 850 849
775 777 774 763 771 777 782 770 777 774 775 775 777 779 785 801 793 802 811 817 821 823 826 829 830 831 832 833 835 837 839 840 842 844 845 847 848 848 850 851 850 850 851 851 852 852 852 851 851
774 774 764 755 760 776 781 771 775 776 774 776 783 781 787 804 801 804 813 818 820 824 827 830 831 832 833 836 838 839 841 842 844 846 846 848 848 850 851 851 851 852 852 852 853 853 852 852 851
771 767 757 762 778 774 771 770 773 778 777 777 780 797 796 801 805 810 816 820 822 826 828 830 832 833 836 838 840 841 842 844 846 847 848 849 850 851 852 852 852 853 854 854 854 854 853 852 851
767 758 758 771 779 771 765 768 768 774 779 781 779 797 802 806 809 814 818 821 823 826 830 833 835 836 837 839 841 842 844 846 847 849 850 851 852 853 853 853 854 854 854 854 854 854 854 852 851
760 752 762 778 781 774 768 768 769 774 779 784 788 795 805 809 812 816 819 822 823 828 832 835 836 838 840 841 843 845 847 848 849 850 852 853 853 854 854 855 855 855 855 855 855 854 853 852 851
762 754 764 765 778 777 775 765 772 776 781 785 782 797 806 808 813 817 820 822 825 829 833 836 839 841 843 845 846 847 848 849 851 852 853 854 854 854 855 856 856 856 856 856 855 854 853 852 852
753 750 760 759 770 779 769 767 769 774 783 779 781 801 808 806 813 817 821 823 826 830 835 837 840 843 845 846 847 849 850 851 851 853 854 854 855 855 855 856 856 856 856 856 855 854 853 852 852
750 757 763 766 765 771 765 773 770 771 782 782 784 785 797 807 813 817 821 824 828 832 834 837 840 843 845 847 848 849 850 851 852 853 854 855 856 857 857 855 856 855 855 855 854 854 852 852 851
754 753 753 742 744 759 764 766 773 778 784 786 788 789 800 808 812 815 818 822 827 831 835 836 839 842 845 846 849 850 851 852 853 854 855 856 856 856 856 856 855 854 854 855 853 853 852 850 850
744 752 741 744 742 746 761 766 767 774 786 782 789 792 800 806 810 813 817 821 825 830 832 835 838 841 844 845 848 849 850 851 853 854 855 855 856 856 855 855 854 854 853 853 852 851 850 851 850
754 742 740 740 744 747 759 758 769 773 771 772 781 791 799 804 807 810 814 819 823 828 831 834 838 841 843 844 847 848 848 850 851 852 854 854 854 854 854 853 854 854 853 853 853 851 852 851 850
748 742 739 739 743 745 750 763 767 773 771 772 782 791 796 800 804 808 812 817 822 826 830 833 836 840 842 844 845 846 847 849 850 851 852 852 853 853 853 854 854 854 853 851 852 852 851 850 849
732 739 743 741 743 747 758 764 766 768 771 774 783 789 793 797 801 806 811 814 819 823 827 831 834 837 839 841 843 844 846 847 847 848 849 850 851 851 852 853 852 852 852 851 852 852 850 850 847
736 751 749 746 746 753 750 773 772 764 771 777 782 786 790 794 798 803 808 811 816 820 824 828 831 834 837 839 840 842 843 844 845 846 847 848 849 849 850 851 851 851 850 850 851 851 848 847 845
745 742 758 749 749 750 754 771 761 760 769 777 780 784 787 791 795 800 804 809 813 817 821 825 828 830 834 836 838 839 840 842 843 844 845 846 848 848 848 851 850 849 849 848 849 848 847 845 844
742 755 750 759 746 755 759 763 754 758 765 773 777 780 783 787 792 796 800 806 809 814 818 822 825 827 830 833 836 838 839 840 840 841 843 844 844 845 846 847 847 847 847 848 846 846 846 844 843
750 750 739 751 751 752 759 758 756 757 760 765 770 774 778 781 784 790 796 801 806 810 815 819 822 825 828 831 833 835 837 838 839 838 839 840 842 842 843 843 845 845 844 845 846 847 846 844 843
722 735 740 732 732 750 752 756 751 756 757 759 761 768 771 774 778 785 791 796 801 806 811 815 818 822 825 828 829 831 833 835 836 835 836 837 838 839 840 841 842 843 843 844 846 846 844 842 841
725 734 736 727 735 746 744 752 745 745 753 753 754 759 764 767 771 779 785 790 795 800 805 810 814 818 822 824 826 827 828 829 830 832 833 834 835 836 838 839 840 841 841 844 845 845 843 841 842
729 732 731 733 740 739 742 752 745 736 741 745 746 747 752 759 763 769 776 782 788 793 799 804 808 813 817 819 822 825 827 829 829 830 831 832 833 835 836 838 839 841 842 841 844 844 845 841 842
735 714 719 726 744 763 739 766 734 729 738 741 741 741 743 749 754 760 767 774 780 786 792 797 802 807 810 814 816 819 821 822 823 826 827 830 832 833 835 836 838 839 840 841 841 842 843 844 842
724 706 722 721 735 740 744 762 734 721 734 729 730 731 734 737 743 750 755 763 771 778 783 789 795 799 803 808 811 815 818 818 821 823 825 827 828 829 831 834 836 839 840 840 840 841 841 842 841
708 719 725 722 729 756 735 747 741 727 728 718 714 720 724 727 732 740 748 755 763 769 775 781 786 791 796 800 804 808 811 815 816 819 822 823 825 827 829 830 832 835 837 840 841 841 841 840 841
715 729 756 763 757 756 718 741 734 705 699 703 703 705 713 719 725 731 738 745 754 760 766 772 778 783 788 793 797 801 806 811 814 817 819 820 822 825 828 831 832 832 835 837 840 843 843 843 843
713 714 734 767 757 746 721 745 725 701 694 690 688 693 695 707 714 721 728 736 744 751 758 764 770 775 780 785 790 795 800 805 810 813 815 818 820 824 826 828 831 833 832 833 836 839 841 841 841
706 715 697 716 713 730 721 719 708 696 697 692 689 687 693 694 700 708 717 725 733 741 748 753 760 766 771 778 784 789 795 800 804 808 811 813 815 819 824 824 827 832 833 833 835 836 838 840 839
683 687 721 706 741 749 727 721 720 706 699 689 685 683 680 684 690 696 703 712 722 730 738 747 752 757 764 771 776 782 788 793 799 802 805 809 810 811 815 820 822 827 830 831 833 833 835 836 837
694 697 693 697 705 727 740 720 685 693 686 683 675 670 670 672 678 684 692 701 711 722 728 737 744 750 757 761 766 773 779 785 791 793 797 798 806 807 810 811 818 824 826 826 829 830 831 833 834
671 690 687 707 719 702 708 703 663 668 674 673 672 665 662 664 668 673 681 693 700 711 718 726 733 739 745 750 758 764 771 777 782 785 788 793 794 801 805 813 808 811 818 823 825 827 828 830 831
Wind_Speed
19 13 7 9 6 5 12 8 11 7 6 11 8 4 9 13 12 11 21 20 18 19 20 19 19 20 19 17 16 16 17 17 17 14 13 12 11 12 11 10 10 11 11 10 11 10 10 10 10
13 9 8 5 4 5 8 7 9 9 11 12 10 7 6 12 12 18 17 20 20 20 18 18 18 17 16 16 16 16 17 17 15 13 12 10 9 9 9 8 10 10 9 9 9 10 9 9 9
12 9 5 3 5 7 9 7 10 11 9 5 5 9 5 9 16 13 20 19 17 14 15 14 15 16 16 17 16 16 16 16 14 14 11 9 8 7 7 7 9 9 8 8 8 8 8 7 7
9 6 5 1 10 6 9 9 12 11 8 4 10 11 10 13 11 13 19 17 15 14 14 14 14 15 16 16 16 16 15 15 14 13 10 9 8 6 6 7 7 7 7 7 7 7 7 7 7
6 4 3 9 10 8 10 10 10 8 7 8 10 11 13 9 14 20 18 17 17 17 15 14 14 15 16 17 16 17 15 14 13 11 9 8 6 5 6 6 5 6 6 6 7 7 8 7 7
5 4 5 10 12 9 8 8 7 7 9 9 17 17 9 16 20 19 19 18 18 18 16 15 15 14 15 16 16 16 14 13 12 10 8 7 5 4 4 4 3 3 4 5 6 7 7 7 7
6 7 8 10 11 10 10 8 5 8 10 9 15 13 12 18 19 20 19 18 18 18 17 16 15 15 15 15 14 12 12 11 10 8 7 6 4 3 2 1 2 3 4 5 6 6 6 7 6
5 5 5 6 7 12 10 8 8 8 8 13 10 7 14 21 22 21 19 18 17 17 15 16 16 15 14 13 12 11 10 10 9 8 7 5 3 1 2 3 4 5 5 5 5 5 5 5 5
5 7 4 5 5 10 13 9 8 7 12 8 5 9 22 25 24 22 20 18 17 16 16 16 16 16 14 13 12 11 10 10 9 6 6 3 3 2 3 5 5 5 5 5 4 5 4 3 4
9 8 3 5 7 13 14 9 11 9 13 11 9 15 25 26 24 23 21 20 19 17 15 16 16 16 15 13 11 10 9 8 8 7 6 5 4 4 4 5 5 5 5 3 3 4 2 2 3
9 10 4 5 7 16 15 10 10 8 13 13 13 19 24 25 23 22 20 19 19 19 18 17 16 16 15 13 12 11 10 9 8 8 7 6 5 4 4 4 4 3 5 4 4 3 2 2 4
9 3 1 7 9 14 15 13 9 10 7 12 13 21 23 21 21 21 20 20 20 19 17 17 17 16 16 13 13 12 11 10 9 8 8 7 6 6 5 4 3 3 4 5 5 4 4 4 5
12 5 4 4 11 11 13 12 10 12 3 12 16 22 22 19 22 21 20 19 19 19 18 18 18 17 16 14 13 12 11 11 10 9 9 9 8 7 7 5 5 5 6 6 5 5 7 8 8
10 5 2 6 12 12 13 13 11 12 7 16 19 22 21 20 22 20 19 19 20 19 19 18 19 18 17 16 14 13 12 11 12 11 11 11 10 9 7 8 8 6 7 6 5 6 8 7 8
7 9 6 8 12 10 12 13 13 15 13 16 19 19 19 19 23 22 22 21 21 21 19 19 19 19 18 17 16 14 13 13 12 12 11 12 12 13 10 9 9 9 7 7 4 7 7 8 8
13 11 10 11 14 9 15 14 16 17 16 17 19 18 18 19 22 22 21 21 20 20 21 20 19 19 19 18 16 15 14 13 13 12 12 11 12 12 11 8 9 9 9 8 6 6 7 8 9
13 14 15 11 15 10 15 7 16 16 17 17 18 19 18 17 20 22 22 21 20 20 20 20 20 19 20 18 16 15 14 13 12 12 12 11 10 9 9 9 11 9 9 7 6 6 7 10 10
17 18 16 13 16 12 16 9 4 15 18 17 18 18 18 19 20 23 23 23 21 19 19 19 20 19 18 16 16 14 14 13 13 13 12 10 10 10 9 8 9 7 8 6 3 6 9 8 7
15 15 15 14 14 16 15 14 11 11 16 17 18 19 20 20 22 24 25 24 22 21 20 21 21 20 18 17 16 16 15 13 12 13 12 12 12 13 12 11 9 7 8 3 3 7 6 8 5
18 18 17 13 9 15 13 15 13 13 16 18 19 20 20 20 19 23 25 26 26 24 24 23 24 22 21 18 16 14 12 13 12 11 11 11 10 11 10 10 7 5 3 2 4 4 7 4 4
21 20 18 14 12 15 9 14 15 16 17 16 20 20 22 21 21 21 26 27 27 27 26 26 26 25 23 22 17 13 12 11 11 12 11 10 10 10 8 7 6 5 4 5 3 4 4 5 4
23 21 18 16 14 13 14 11 13 16 18 19 20 21 22 23 22 21 24 28 29 29 27 27 27 26 26 24 22 19 16 15 11 9 8 8 8 7 7 7 6 6 5 3 3 3 3 3 4
23 17 17 18 18 17 14 9 13 5 14 18 22 23 23 23 23 23 23 30 31 30 29 28 28 28 27 26 25 22 20 17 13 10 7 9 9 10 9 8 7 6 5 4 3 3 2 2 4
20 12 15 18 16 19 21 14 14 13 15 16 16 22 24 25 23 22 28 29 30 31 30 29 29 30 29 27 26 25 22 19 15 13 12 11 10 10 11 12 11 9 6 6 4 4 4 3 3
21 18 12 15 15 15 20 16 16 9 12 14 14 19 23 23 23 23 23 25 30 32 32 31 29 30 30 29 28 27 26 22 19 16 14 11 10 10 10 11 11 9 8 6 4 6 5 4 5
28 26 15 25 16 14 18 16 19 19 20 20 15 11 17 23 23 25 25 29 32 33 33 31 30 31 32 31 30 27 25 23 20 17 14 13 11 10 10 12 11 10 10 9 7 7 8 7 7
28 27 25 23 20 17 18 15 22 14 17 18 16 14 15 20 24 27 26 33 34 34 34 35 33 33 33 33 29 28 25 23 20 17 16 15 13 10 12 13 11 11 11 10 9 9 9 9 8
28 23 24 21 25 23 21 21 13 17 19 19 17 14 17 18 21 23 25 32 36 36 36 35 35 35 33 32 31 28 26 24 22 22 19 16 16 16 16 14 12 12 12 11 12 11 11 10 9
21 20 25 23 22 18 18 18 16 14 13 12 12 13 13 14 18 21 23 33 36 35 35 35 34 33 31 34 34 30 28 26 25 25 23 22 17 18 20 17 11 13 14 14 14 13 12 12 10
25 25 27 18 25 20 21 17 18 20 18 21 21 15 10 10 12 17 20 26 32 35 34 33 34 34 35 35 33 32 30 29 30 28 27 22 21 19 21 18 16 21 18 16 16 15 13 13 12
Wind_Direction
150 161 193 231 208 165 138 156 135 137 106 82 62 100 79 19 16 89 124 127 125 123 128 132 139 138 130 129 129 137 140 140 139 140 126 121 112 97 93 89 84 77 73 67 62 56 54 52 49
171 191 230 276 247 131 93 116 116 75 96 116 108 146 50 68 88 116 122 134 134 132 132 140 143 141 139 132 132 127 132 137 141 142 133 123 115 99 94 90 83 77 72 66 56 47 43 44 46
182 206 262 288 324 67 103 118 108 112 130 140 105 60 51 102 118 119 129 140 138 132 130 140 146 142 142 134 131 134 134 134 140 146 136 130 119 111 106 93 83 77 72 63 51 43 34 34 39
182 200 229 40 93 75 102 115 129 130 116 102 110 91 82 108 120 128 139 143 140 137 133 140 136 136 137 137 135 133 134 143 148 150 147 137 127 119 106 90 79 72 61 46 34 28 22 21 20
209 248 170 77 80 87 112 116 152 121 111 124 119 115 105 120 126 134 139 142 141 137 132 134 133 134 139 139 135 140 141 146 152 153 146 142 136 117 101 84 71 64 49 26 16 17 12 18 18
214 259 100 90 105 108 121 140 140 118 122 114 119 124 93 128 137 142 143 146 141 136 139 141 139 140 142 148 150 150 149 152 153 151 153 153 148 124 100 85 68 50 24 8 3 1 10 24 21
282 258 78 96 111 135 140 151 159 131 140 137 137 122 129 148 143 145 148 145 145 142 142 146 149 150 153 152 157 157 156 159 162 162 161 158 155 128 96 56 40 0 343 342 353 6 21 30 35
272 275 175 123 140 114 137 153 122 146 115 122 142 153 158 149 150 149 149 150 149 147 149 151 155 155 153 154 160 164 167 169 163 168 170 174 163 151 21 26 344 332 337 348 357 4 8 13 23
255 251 170 132 151 128 151 143 152 105 141 164 136 148 143 149 152 153 156 156 153 158 162 161 159 161 161 162 171 165 168 167 172 181 192 185 209 234 283 300 308 336 327 332 338 340 340 346 26
229 278 69 120 121 143 160 155 147 164 155 150 138 123 146 156 161 162 165 162 167 166 171 169 169 168 168 169 174 175 182 184 190 197 205 215 232 246 253 287 310 320 335 353 8 360 341 359 345
207 281 96 150 154 141 159 156 154 162 176 169 158 153 157 163 169 169 170 171 172 172 176 175 176 177 181 180 184 192 196 199 205 207 208 221 236 243 258 283 288 314 320 331 342 315 327 12 334
239 239 235 132 165 161 164 151 159 167 143 160 160 161 162 171 174 175 175 176 176 179 180 178 182 186 192 195 199 203 204 205 210 210 215 229 240 237 248 255 290 292 312 317 316 323 325 307 311
230 187 245 185 172 174 155 166 148 171 157 162 153 164 170 178 179 182 182 179 180 184 186 187 189 193 196 202 205 211 212 211 218 219 222 224 239 242 243 257 277 286 285 287 316 310 313 309 297
214 245 176 209 175 178 178 162 169 170 159 157 165 174 179 183 183 182 188 188 190 192 192 192 195 197 200 205 209 213 216 220 225 228 227 231 233 245 254 264 271 281 277 288 299 309 309 306 305
183 189 167 183 167 172 190 177 209 149 161 164 176 181 184 189 186 189 193 196 196 197 196 198 199 199 203 208 212 216 218 221 225 227 231 236 242 245 250 258 271 274 273 263 287 298 303 308 307
199 220 196 163 170 162 195 192 197 159 171 173 179 184 189 192 193 195 196 199 198 201 200 201 202 203 206 210 213 217 219 220 224 230 243 252 256 266 268 264 261 268 265 270 278 283 312 312 310
203 213 215 159 195 163 199 249 163 177 186 180 185 188 193 191 199 197 199 200 201 201 201 204 205 206 207 210 214 218 222 224 231 236 242 247 249 256 263 266 266 260 261 253 275 303 316 316 304
197 232 186 179 192 190 196 209 146 184 197 194 192 195 196 197 201 198 200 200 201 200 203 204 205 207 206 207 213 224 230 233 237 246 242 241 250 253 254 254 253 260 242 253 283 318 323 309 323
218 207 207 201 161 202 209 217 200 195 213 212 200 200 201 204 201 200 201 201 202 203 202 205 205 205 204 206 211 217 225 231 240 250 251 252 250 247 247 255 253 242 241 257 290 312 313 320 337
233 218 218 165 175 214 211 232 223 208 214 218 214 205 211 208 205 201 203 205 204 205 207 207 211 210 210 211 215 225 233 240 245 247 255 257 249 238 233 239 248 216 236 242 296 325 316 306 342
223 228 220 198 181 221 249 241 231 219 209 220 221 219 211 214 210 204 205 207 208 207 209 210 213 213 213 215 217 220 230 241 244 249 259 256 246 247 235 232 227 209 248 291 301 322 326 325 321
219 220 230 212 188 222 199 249 208 208 205 218 217 216 217 211 213 211 208 208 210 211 211 213 214 213 215 214 219 218 223 233 237 247 253 247 239 230 217 210 207 206 252 281 280 312 318 312 325
228 221 226 235 210 238 180 245 258 195 228 213 218 212 215 214 212 212 208 209 210 209 211 212 214 214 214 213 216 216 226 234 236 232 231 223 214 214 211 205 202 212 257 232 247 271 280 290 303
219 236 233 233 233 226 228 209 239 215 224 233 221 214 212 209 209 210 211 207 207 208 211 211 210 210 211 210 214 216 223 224 223 215 216 218 215 217 212 206 195 200 211 226 254 248 240 243 271
210 209 206 217 221 232 213 233 232 247 222 228 238 208 213 210 208 205 206 203 204 206 207 210 207 209 209 210 212 215 219 219 220 218 222 223 219 215 202 197 198 201 207 212 234 248 252 253 270
209 211 219 214 220 221 237 230 233 242 259 268 260 249 200 210 209 209 204 205 204 207 206 208 205 208 207 208 211 213 215 217 220 219 226 217 221 222 200 201 212 215 207 206 209 230 244 245 252
202 218 226 241 224 234 224 216 248 242 260 261 253 229 223 206 210 209 206 206 205 206 207 205 204 206 206 207 209 212 212 214 215 217 213 211 204 205 204 200 205 221 216 210 214 228 240 246 250
228 206 220 229 232 227 240 232 222 224 231 238 237 228 223 216 211 212 210 205 205 206 208 207 205 205 206 207 209 212 210 209 207 204 205 208 193 190 195 196 196 209 213 212 222 237 239 237 250
209 230 215 231 227 239 228 235 220 240 242 242 245 223 230 226 214 212 209 210 203 206 205 207 207 208 206 205 205 205 206 204 202 203 203 193 197 195 190 184 183 208 217 216 225 238 242 238 244
210 215 215 224 222 234 249 242 225 224 232 247 248 255 282 255 231 213 206 205 203 204 207 204 208 207 208 206 202 204 201 199 197 199 203 190 183 193 198 197 195 208 217 225 225 233 241 242 245